Regional Weather Roundup
Issued by NWS

Home | Current Version | Previous Version | Graphics & Text | Print | Product List | Glossary Off
Versions: 1 2 3 4 5 6 7 8 9 10 11 12 13 14 15 16 17 18 19 20 21 22 23 24 25 26 27 28 29 30 31 32 33 34 35 36 37 38 39 40 41 42 43 44 45 46 47 48 49 50

561
ASUS43 KLSX 221607
RWRMO

WEATHER SUMMARY FOR MISSOURI
NATIONAL WEATHER SERVICE SPRINGFIELD MO
1100 AM CDT FRI SEP 22 2017

NOTE: "FAIR" INDICATES FEW OR NO CLOUDS BELOW 12,000 FEET WITH NO
       SIGNIFICANT WEATHER AND/OR OBSTRUCTIONS TO VISIBILITY.
       CURRENT SKY AND/OR WEATHER CONDITIONS ARE NOT AVAILABLE FOR
       CHILLICOTHE AND FARMINGTON.

MOZ001>031-035>038-043-044-053-054-221700-
...NORTHERN AND WESTERN MISSOURI...

CITY           SKY/WX    TMP DP  RH WIND       PRES   REMARKS
KANSAS CTY INT SUNNY     82  72  71 S16       29.98R
KANSAS C DTWN  SUNNY     84  72  67 S13       29.97S
LEE`S SUMMIT   SUNNY     83  71  67 S17G23    30.00S
ST JOSEPH      SUNNY     84  72  67 S15       29.95R
CHILLICOTHE      N/A     84  72  67 S14G20    30.01R
KIRKSVILLE     SUNNY     84  71  65 S9        30.04S

$$
MOZ066>068-077>081-088>096-101>105-221700-
...SOUTHWEST MISSOURI...

CITY           SKY/WX    TMP DP  RH WIND       PRES   REMARKS
SPRINGFIELD    SUNNY     83  71  67 S10       30.07R
JOPLIN         SUNNY     83  71  67 SW17      30.04R
BRANSON        MOSUNNY   84  68  58 S7        30.10R

$$
MOZ032>034-039>042-045>050-055>058-069>072-221700-
...CENTRAL MISSOURI...

CITY           SKY/WX    TMP DP  RH WIND       PRES   REMARKS
COLUMBIA       SUNNY     85  71  63 S8        30.06S HX  90
JEFFERSON CITY SUNNY     85  68  56 S8        30.05R
ROLLA          SUNNY     86  69  56 S14G20    30.09S HX  90
SEDALIA        SUNNY     85  72  65 S10       30.05S HX  91
WHITEMAN AFB   SUNNY     84  73  70 S16       30.01S HX  90
WARRENSBURG    SUNNY     81  68  65 S8G18     30.02S
OSAGE BEACH    SUNNY     84  72  67 S6        30.06S

$$
MOZ051-052-059>065-221700-
...EAST CENTRAL MISSOURI...

CITY           SKY/WX    TMP DP  RH WIND       PRES   REMARKS
ST LOUIS INTL  MOSUNNY   89  69  51 S7        30.08S HX  93
SPIRIT OF STL  SUNNY     88  71  57 VRB5      30.06F HX  94
ST CHARLES     SUNNY     88  68  51 SW9       30.06F HX  91

$$
MOZ072>076-082>087-097>100-106>115-221700-
...SOUTH CENTRAL AND SOUTHEAST MISSOURI...

CITY           SKY/WX    TMP DP  RH WIND       PRES   REMARKS
CAPE GIRARDEAU SUNNY     87  68  52 VRB6      30.07S HX  90
FARMINGTON     SUNNY     85  71  63 S7        30.11R HX  90
POPLAR BLUFF   SUNNY     85  72  65 E6        30.07S HX  91
WEST PLAINS    SUNNY     85  67  54 S9        30.11S

$$



USA.gov is the U.S. government's official web portal to all federal, state and local government web resources and services.